Vertical_Velocity
-6 -4 -4 -7 -7 -4 1 7 1 2 3 -5 -6 -1 2 -1 6 -2 -5 9 8 6 21 4 0 -2 -5 -4 1 -3 2 -1
-4 -4 -4 -3 -10 -6 -9 -3 9 3 3 -5 8 -8 -10 8 -2 5 1 -6 14 15 13 5 -7 -11 -7 -8 2 -3 -1 -0
0 -3 -4 -6 -2 -1 -2 -10 -8 7 -4 8 -6 7 -2 -4 8 -2 3 -0 -4 -10 -0 28 9 -1 -2 -11 -9 -0 -1 -3
-3 -3 -8 -6 -5 -5 -8 -3 0 -12 -1 -4 -3 2 8 -0 -6 8 3 -1 -1 -13 -10 17 44 7 -15 13 -14 -6 5 5
-2 -1 0 -6 -5 -7 -8 -11 -20 -6 -4 -5 -3 -7 7 2 7 -5 7 4 1 -3 0 10 232 -8 -2 18 9 -11 -3 4
-3 -5 -5 -3 -3 -3 -9 -5 -9 -7 -2 -4 -8 -7 -11 2 1 1 -8 10 -4 -3 11 6 -40 7 25 30 10 -6 -15 7
-6 -5 -4 -1 -5 -17 -11 -7 -10 -8 -5 -4 -2 -3 -5 -4 -2 -2 -1 -2 4 -2 16 2 9 -9 114 11 3 4 -9 10
-5 -7 -4 -2 -6 -9 1 -2 -6 -10 -1 -6 -3 2 6 1 -3 -2 -10 -2 2 4 5 9 11 14 6 34 12 13 6 1
-2 -5 -1 -4 -5 -9 -1 3 2 -7 -1 8 1 -5 5 3 5 -6 -5 -8 1 -1 11 5 6 0 13 69 2 -14 18 8
-4 -4 -7 -4 -7 -6 -3 2 11 5 3 2 1 -4 -2 -4 -3 4 -3 -6 -10 -5 -2 1 8 9 0 -10 55 18 22 6
-3 -5 -6 -4 -6 -5 -3 -1 -0 6 9 -6 -8 -7 -9 -8 -7 -6 3 -8 2 -5 -6 3 7 -3 -1 60 13 8 12 15
-3 -2 -2 -2 -7 -5 -6 -3 1 2 -2 -1 -2 2 1 4 11 1 1 -5 -8 -11 -4 -1 4 14 -16 -34 14 71 -1 10
-3 -1 1 -1 -0 -2 -2 -2 -4 -1 -4 -5 -1 -8 -3 -6 -5 -22 -28 -7 -10 -11 -11 -3 -1 1 -9 -7 1 35 9 1
-6 0 -3 -4 -1 -2 -1 -1 -2 -1 -7 -3 -5 -12 -9 -1 -6 -2 2 -12 4 -6 -2 1 -17 5 2 9 -14 96 4 3
-3 1 -3 -3 -1 -0 0 -5 0 1 2 -2 -2 -6 -7 -3 10 14 27 29 23 3 1 11 0 -16 -4 7 7 44 120 -6
-3 -0 0 -4 0 -5 -3 -6 -3 3 -0 -0 8 2 1 5 3 11 26 19 -6 3 1 4 -9 0 1 11 -18 24 48 5
-1 -0 1 1 -2 1 -3 -3 -3 1 2 -1 2 7 11 4 19 1 2 -2 -4 -4 4 5 7 4 -7 -9 -12 -7 -16 40
-2 -4 -2 1 0 2 -1 -2 -3 -2 1 1 0 -1 -2 9 10 18 11 9 11 -8 18 12 1 1 2 18 46 25 30 14
-1 -1 -3 -2 -2 -1 0 -2 -7 -0 -0 -0 2 0 -1 -4 -2 3 6 9 11 10 7 16 6 -5 -5 -21 10 7 44 29
Height
5756 5754 5752 5749 5747 5745 5744 5743 5743 5744 5744 5743 5740 5738 5742 5745 5746 5748 5751 5754 5757 5750 5754 5763 5768 5771 5775 5780 5782 5783 5785 5786
5743 5741 5739 5736 5733 5731 5729 5728 5727 5724 5724 5725 5725 5724 5722 5726 5731 5733 5735 5740 5746 5744 5738 5746 5753 5759 5765 5767 5771 5773 5776 5777
5732 5730 5727 5724 5720 5715 5712 5710 5709 5705 5704 5704 5706 5706 5708 5707 5711 5716 5719 5723 5729 5735 5735 5732 5735 5746 5749 5753 5758 5763 5767 5767
5721 5717 5714 5710 5705 5700 5697 5692 5685 5684 5682 5681 5682 5685 5686 5688 5690 5696 5702 5706 5712 5718 5724 5719 5709 5729 5737 5742 5744 5750 5757 5758
5709 5705 5700 5695 5689 5684 5679 5673 5667 5661 5657 5654 5655 5658 5661 5664 5672 5676 5683 5689 5695 5702 5707 5708 5695 5706 5722 5728 5733 5737 5742 5748
5698 5693 5687 5682 5676 5670 5666 5659 5653 5648 5643 5640 5639 5640 5643 5645 5649 5656 5664 5670 5677 5686 5688 5691 5692 5670 5697 5711 5721 5722 5729 5737
5685 5681 5677 5672 5666 5660 5652 5645 5640 5633 5630 5627 5626 5626 5630 5632 5635 5638 5641 5648 5656 5665 5670 5668 5674 5676 5663 5693 5703 5710 5716 5723
5675 5673 5669 5663 5657 5652 5641 5633 5628 5621 5617 5615 5612 5612 5612 5615 5616 5620 5624 5628 5635 5642 5645 5648 5655 5663 5673 5677 5682 5696 5700 5708
5666 5663 5659 5654 5649 5642 5631 5624 5619 5614 5609 5604 5600 5597 5596 5598 5598 5599 5605 5608 5611 5617 5623 5630 5635 5645 5653 5656 5674 5678 5685 5696
5657 5654 5650 5646 5639 5631 5621 5615 5610 5603 5595 5589 5587 5584 5583 5582 5581 5580 5582 5587 5592 5597 5604 5608 5613 5623 5640 5638 5648 5658 5672 5683
5648 5645 5641 5636 5631 5622 5612 5603 5598 5591 5586 5581 5575 5570 5568 5567 5564 5561 5560 5563 5567 5576 5583 5588 5595 5612 5626 5640 5636 5644 5654 5666
5641 5638 5633 5628 5622 5615 5605 5595 5588 5581 5576 5571 5567 5562 5558 5552 5547 5542 5537 5540 5543 5549 5557 5570 5585 5597 5604 5621 5622 5630 5640 5650
5634 5630 5625 5619 5613 5607 5599 5588 5580 5573 5568 5563 5558 5554 5547 5540 5533 5529 5526 5523 5524 5526 5532 5557 5573 5583 5594 5603 5618 5626 5627 5632
5626 5623 5618 5612 5607 5602 5596 5586 5577 5570 5563 5557 5550 5545 5539 5527 5523 5516 5508 5509 5511 5512 5523 5544 5558 5569 5583 5593 5601 5587 5617 5624
5619 5615 5611 5606 5602 5597 5591 5583 5576 5568 5561 5555 5546 5540 5532 5522 5519 5513 5508 5511 5512 5516 5526 5536 5546 5556 5573 5580 5586 5602 5593 5616
5612 5609 5605 5601 5597 5592 5586 5581 5574 5567 5559 5553 5547 5539 5530 5522 5520 5518 5513 5518 5519 5523 5527 5533 5538 5550 5564 5574 5585 5586 5588 5598
5606 5603 5599 5595 5591 5586 5581 5577 5572 5565 5558 5550 5544 5538 5532 5526 5520 5520 5519 5521 5524 5525 5525 5527 5537 5546 5558 5566 5579 5582 5589 5583
5600 5597 5593 5588 5584 5580 5575 5572 5568 5563 5556 5549 5543 5536 5529 5525 5522 5518 5514 5516 5520 5523 5522 5526 5533 5545 5555 5557 5562 5573 5575 5575
5591 5588 5584 5581 5576 5572 5567 5564 5561 5558 5554 5549 5543 5538 5531 5527 5522 5519 5515 5514 5514 5517 5519 5522 5528 5537 5547 5552 5554 5558 5562 5565